Location: Mahannah Oil Field
(37.4664°N, 96.6003°W)
Time: 14:50:06
(UTC+00:00)

Vanguard 2 Rocket - Pass Details

Date: 30 January 2021
Orbit: 554 x 3325 km, 32.9° (Epoch: 06 March)

Event Time Altitude Azimuth Distance (km) Brightness Sun altitude
Rises 20:11:14 0° 248° (WSW) 7,287 12.1 31.0°
Reaches altitude 10° 20:16:24 10° 246° (WSW) 6,153 12.0 30.6°
Maximum altitude 20:34:49 68° 170° (S) 2,578 10.0 28.8°
Drops below altitude 10° 20:46:00 10° 90° (E) 3,951 9.9 27.6°
Sets 20:48:34 0° 88° (E) 4,642 10.2 27.3°
